TimeEDT,TemperatureF,Dew PointF,Humidity,Sea Level PressureIn,VisibilityMPH,Wind Direction,Wind SpeedMPH,Gust SpeedMPH,PrecipitationIn,Events,Conditions,WindDirDegrees,DateUTC
12:15 AM,77.0,71.6,83,30.17,10.0,South,10.4,-,N/A,,Partly Cloudy,180,2013-06-23 04:15:00
12:35 AM,77.0,71.6,83,30.17,10.0,SSW,6.9,-,N/A,,Partly Cloudy,200,2013-06-23 04:35:00
12:55 AM,77.0,71.6,83,30.17,10.0,South,6.9,-,N/A,,Clear,190,2013-06-23 04:55:00
1:15 AM,77.0,71.6,83,30.17,10.0,South,5.8,-,N/A,,Clear,170,2013-06-23 05:15:00
1:35 AM,77.0,71.6,83,30.17,10.0,South,8.1,-,N/A,,Partly Cloudy,190,2013-06-23 05:35:00
1:55 AM,77.0,71.6,83,30.16,10.0,South,8.1,-,N/A,,Clear,180,2013-06-23 05:55:00
2:15 AM,77.0,71.6,83,30.16,10.0,South,8.1,-,N/A,,Clear,180,2013-06-23 06:15:00
2:35 AM,77.0,71.6,83,30.17,10.0,South,5.8,-,N/A,,Clear,190,2013-06-23 06:35:00
2:55 AM,77.0,71.6,83,30.17,10.0,South,4.6,-,N/A,,Partly Cloudy,180,2013-06-23 06:55:00
3:15 AM,77.0,71.6,83,30.17,10.0,South,3.5,-,N/A,,Scattered Clouds,190,2013-06-23 07:15:00
3:35 AM,75.2,71.6,89,30.16,10.0,Calm,Calm,-,N/A,,Partly Cloudy,0,2013-06-23 07:35:00
3:55 AM,73.4,71.6,94,30.16,10.0,Calm,Calm,-,N/A,,Partly Cloudy,0,2013-06-23 07:55:00
4:15 AM,73.4,69.8,88,30.17,10.0,Calm,Calm,-,N/A,,Mostly Cloudy,0,2013-06-23 08:15:00
4:35 AM,73.4,69.8,88,30.16,9.0,Calm,Calm,-,N/A,,Clear,0,2013-06-23 08:35:00
4:55 AM,71.6,69.8,94,30.16,3.0,Calm,Calm,-,N/A,,Clear,0,2013-06-23 08:55:00
5:15 AM,71.6,68.0,88,30.16,1.8,Calm,Calm,-,N/A,,Clear,0,2013-06-23 09:15:00
5:35 AM,71.6,69.8,94,30.16,1.5,Calm,Calm,-,N/A,,Clear,0,2013-06-23 09:35:00
6:50 AM,71.6,69.8,94,30.17,10.0,Calm,Calm,-,N/A,,Clear,0,2013-06-23 10:50:00
7:50 AM,77.0,69.8,78,30.18,10.0,SE,5.8,-,N/A,,Partly Cloudy,130,2013-06-23 11:50:00
8:45 AM,78.8,73.4,83,30.20,10.0,SE,6.9,-,N/A,,Mostly Cloudy,140,2013-06-23 12:45:00
9:50 AM,80.6,73.4,79,30.21,10.0,South,4.6,-,N/A,,Mostly Cloudy,180,2013-06-23 13:50:00
10:50 AM,80.6,73.4,79,30.20,8.0,ESE,4.6,-,N/A,,Mostly Cloudy,120,2013-06-23 14:50:00
12:45 PM,82.4,73.4,74,30.21,10.0,SE,11.5,-,N/A,,Mostly Cloudy,140,2013-06-23 16:45:00
1:45 PM,84.2,73.4,70,30.20,10.0,NE,9.2,17.3,N/A,,Mostly Cloudy,50,2013-06-23 17:45:00
2:20 PM,82.4,75.2,79,30.19,10.0,ESE,11.5,-,N/A,,Scattered Clouds,120,2013-06-23 18:20:00
2:45 PM,82.4,73.4,74,30.19,10.0,SE,10.4,-,N/A,,Scattered Clouds,130,2013-06-23 18:45:00
3:45 PM,82.4,73.4,74,30.18,10.0,South,13.8,-,N/A,,Scattered Clouds,170,2013-06-23 19:45:00
4:50 PM,78.8,73.4,83,30.16,10.0,SSE,15.0,-,N/A,,Mostly Cloudy,160,2013-06-23 20:50:00
5:47 PM,80.6,71.6,74,30.16,10.0,South,12.7,-,N/A,,Mostly Cloudy,170,2013-06-23 21:47:00
6:50 PM,78.8,73.4,83,30.18,10.0,South,10.4,-,N/A,,Scattered Clouds,170,2013-06-23 22:50:00
7:45 PM,78.8,73.4,83,30.17,10.0,South,11.5,-,N/A,,Scattered Clouds,170,2013-06-23 23:45:00
8:45 PM,78.8,71.6,78,30.18,10.0,South,9.2,-,N/A,,Scattered Clouds,180,2013-06-24 00:45:00
9:50 PM,78.8,73.4,83,30.20,10.0,South,10.4,-,N/A,,Scattered Clouds,180,2013-06-24 01:50:00
10:50 PM,78.8,71.6,78,30.20,10.0,South,11.5,-,N/A,,Partly Cloudy,180,2013-06-24 02:50:00
10:55 PM,78.8,71.6,78,30.21,10.0,SSE,10.4,-,N/A,,Clear,160,2013-06-24 02:55:00
11:15 PM,78.8,71.6,78,30.20,10.0,South,13.8,-,N/A,,Clear,170,2013-06-24 03:15:00
11:35 PM,78.8,73.4,83,30.20,10.0,South,11.5,-,N/A,,Clear,170,2013-06-24 03:35:00
11:55 PM,78.8,73.4,83,30.20,10.0,South,11.5,-,N/A,,Clear,180,2013-06-24 03:55:00